Showing default

DRAGRACER 2(AUGURY), 46955

Orbit data source: Space-Track

DRAGRACER 2(AUGURY), 46955 is a payload satellite owned by TriSept (US) in LEO that was launched on Fri, 20 Nov 2020 UTC via an ELECTRON launch vehicle from the Rocket Lab Launch Complex (RLLC). Payloads include a variety of satellites, spacecraft, and rockets equipped with specific instruments for various scientific and technological missions. These include communications satellites like Starlink; space stations such as the ISS; scientific satellites like the Hubble; Earth observation satellites from companies like Planet Labs, Umbra, and HawkEye 360; GPS; miniature CubeSats for education and research; and military/defense satellites.

Loading next visibility...
DRAGRACER 2(AUGURY) details
Identifier
46955, 2020-085AC
Orbit
LEO
Last TLE update19 hours ago
Origin
Flag of USTriSept (US)
ManufacturerMillenium ES
MissionOperational Commercial Technology
Bus & MotorCUBESAT 6U, Unknown motor
Mass12 kg wet, 12 kg dry
Launch date (UTC)
2020-11-20 (4 years ago)
Launch vehicle
ELECTRON
Launch site
Rocket Lab Launch Complex (RLLC)
Object type
Payload
Rocket body
Debris
Shape & HBRBox, Unknown HBR
Radar Cross Section0.080 m², Medium (>0.1 m² and < 1m²)

Expand to show TLE details & history

TLE from 19 hours ago
0 DRAGRACER 2(AUGURY)
1 46955U 20085AC  24339.39822985  .00024365  00000-0  58754-3 0  9993
2 46955  97.5610 131.9018 0008805 156.1975 203.9680 15.41185223224904
Epoch: 2024-12-04T09:33Z
Definitive object data (Epoch: 2024-12-04T09:33:27.059Z)
Latitude
Longitude-85.1549°
Altitude451.215 km
Speed7.639 km/s
True Right ascension08h 47m 36s
True Declination0° 00' 00"
Sunlit
Object was in full shadow at TLE epoch
Visualization TLE readout
Latitude30.41092°
Longitude-88.78645°
Altitude449.721 km
Speed7.644 km/s
Apparent Right ascension11h 06m 56s
Apparent Declination-4° 36' 19"
Sunlit
Object is in full shadow
Visualization observer readout
Local Sidereal Time02:20:42
Azimuth64.069° ENE
Elevation-33.963°
Doppler factor1
Orbital elements
Apogee altitude445.558 km
Perigee altitude433.552 km
Semi-major axis6,817.692 km
Eccentricity0.0008805
Inclination97.561°
RAAN131.9018°
Arg. of periapsis156.1975°
True anomaly203.92705°
Mean anomaly203.968°
Eccentric anomaly203.94752°
Mean motion3.85556 °/min
BSTAR0.00058754
Orbital period93.37 mins
Loading maneuver chart data...

DRAGRACER 2(AUGURY) Visibility forecast

Observer location: undefined°, undefined

Span
Click to sort rows by Start time (UTC) header in descending order
Start Az.
Max El. time (UTC)
Max El. Az.
Max El.
End time (UTC)
End Az.
5 mins2024-12-05 10:37:19.104Z182.183° SSW2024-12-05 10:39:19.104Z226.02° WSW39.146°2024-12-05 10:42:19.104Z337.567° N
5 mins2024-12-05 23:31:19.104Z355.891° N2024-12-05 23:33:19.104Z286.971° WNW38.731°2024-12-05 23:36:19.104Z208.249° SW
|